DELTA 1 DEB, 21567

Orbit data source: Space-Track

DELTA 1 DEB, 21567 is space debris in SSO originally from a launch on Thu, 12 Jun 1975 UTC launched from the Air Force Western Test Range (AFWTR). Debris objects in space refer to the collection of defunct objects orbiting the Earth. Examples of debris include non-operational satellites, rocket bodies, and fragments generated from explosions, collisions, or faulty payload assembly.

Loading next visibility...
Identifier
21567, 1975-052HM
Orbit
SSO
Country
Flag of USUS
Related business
Manufacturer
Unknown
Mission
Spacecraft
Bus & Motor
Unknown
Mass
Unknown
Launch date (UTC)
1975-06-12 (51 years ago)
Launch vehicle
Unknown
Launch site
Air Force Western Test Range (AFWTR)
Object type
Payload
Rocket body
Debris
Shape & HBR
Unknown shape, 0.1 m
Radar Cross Section
Small (<0.1 m²)

Expand to show TLE details & history
Last TLE update: 2 days ago

TLE from 2 days ago
0 DELTA 1 DEB
1 21567U 75052HM  25349.42527178  .00000875  00000-0  97479-3 0  9998
2 21567  99.8350 150.3160 0243872 336.4969  77.4324 13.62334610711093
Epoch: 2025-12-15T10:12Z
TLE epoch observation values (Epoch: 2025-12-15T10:12:23.481Z)
Latitude
55.51293°
Longitude
-101.64562°
Altitude
1,001.272 km
Speed
7.374 km/s
True Right ascension
09h 03m 06s
True Declination
55° 21' 27"
Sunlit
Object was in full shadow at epoch
Visualization orbit readout
Latitude
Unknown
Longitude
Unknown
Altitude
Unknown
Speed
Unknown
Apparent Right ascension
Unknown
Apparent Declination
Unknown
Sunlit
N/A
Visualization observer readout
Local Sidereal Time
14:52:17
Azimuth
Unknown
Elevation
Unknown
Doppler factor
Unknown
Orbital elements
Apogee altitude
1,205.039 km
Perigee altitude
843.979 km
Semi-major axis
7,402.646 km
Eccentricity
0.02439
Inclination
99.835°
RAAN
150.316°
Arg. of periapsis
336.4969°
True anomaly
80.17717°
Mean anomaly
77.4324°
Eccentric anomaly
78.80309°
Mean motion
3.40771 °/min
Orbital period
105.64 mins
BSTAR
0.00097479
Loading maneuver chart data...
Computing Atmospheric mass density...
Loading historical data...
Loading historical data...
Loading historical data...
Loading historical data...
Loading historical data...
Loading historical data...
Loading historical data...

Documentation

Showing up to 5 results
|